Regional Weather Roundup
Issued by NWS Memphis, TN

Home | Current Version | Previous Version | Text Only | Print | Product List | Glossary On
Versions: 1 2 3 4 5 6 7 8 9 10 11 12 13 14 15 16 17 18 19 20 21 22 23 24 25 26 27 28 29 30 31 32 33 34 35 36 37 38 39 40 41 42 43 44 45 46 47 48 49 50
000
ASUS44 KMEG 190210
RWRMEG
MEMPHIS CWA HOURLY WEATHER ROUNDUP
NATIONAL WEATHER SERVICE MEMPHIS TN
900 PM CDT SAT APR 18 2015

...WEST TENNESSEE...

CITY           SKY/WX    TMP DP  RH WIND       PRES   REMARKS
MEMPHIS INTL   LGT RAIN  69  61  75 SE5       29.85S
NWS MEMPHIS      N/A     68 N/A N/A MISG        N/A
JACKSON        CLOUDY    68  62  81 S5        29.86R
LEXINGTON      PTCLDY    70  61  73 CALM      29.85F
SAVANNAH       PTCLDY    68  32  26 CALM      29.87S
DYERSBURG      CLOUDY    70  54  56 CALM      29.85R
UNION CITY     CLOUDY    70  32  24 CALM      29.84R
PARIS          CLEAR     70  57  64 NE3       29.86R


...EASTERN ARKANSAS...

CITY           SKY/WX    TMP DP  RH WIND       PRES   REMARKS
JONESBORO      CLOUDY    67  63  87 S6        29.84R
WEST MEMPHIS   LGT RAIN  66  65  96 CALM      29.84S
BATESVILLE     CLOUDY    63  63 100 E5        29.84S
NEWPORT        CLOUDY    67  66  96 S6        29.86R
WALNUT RIDGE   CLOUDY    70  63  78 SE3       29.84R
BLYTHEVILLE    LGT RAIN  71  65  81 SW6       29.84S
SEARCY         CLOUDY    65  63  93 E3        29.85R
STUTTGART      CLOUDY    64  61  88 E10       29.81F
PINE BLUFF     CLOUDY    65  64  97 E6        29.82S
MONTICELLO     CLOUDY    66  65  96 NE7       29.79F


...NORTH MISSISSIPPI...

CITY           SKY/WX    TMP DP  RH WIND       PRES   REMARKS
TUPELO         LGT RAIN  66  63  90 S3        29.87S FOG
OXFORD         CLOUDY    63  63 100 SE5       29.88R
OLIVE BRANCH   MOCLDY    64  64 100 CALM      29.86S
TUNICA         LGT RAIN  64  63  94 E5        29.85S
CLARKSDALE     CLOUDY    66  66 100 E8        29.84F
CORINTH        DRIZZLE   68  63  83 S3        29.86S
GREENWOOD      CLOUDY    66  63  90 NE3       29.83F
COLUMBUS       CLOUDY    66  64  94 SE6       29.87S
STARKVILLE     LGT RAIN  64  63  94 SE5       29.87S
GOLDEN TRIANGL CLOUDY    66  63  88 SE9       29.86S


...SOUTHEAST MISSOURI...

CITY           SKY/WX    TMP DP  RH WIND       PRES   REMARKS
WEST PLAINS    PTCLDY    64  51  62 CALM      29.86S
POPLAR BLUFF   CLOUDY    67  63  87 CALM      29.83F
CAPE GIRARDEAU PTCLDY    66  61  84 CALM      29.85R


...NORTHWEST ALABAMA...

CITY           SKY/WX    TMP DP  RH WIND       PRES   REMARKS
MUSCLE SHOALS  CLOUDY    69  63  81 S5        29.90R


...MIDDLE TENNESSEE...

CITY           SKY/WX    TMP DP  RH WIND       PRES   REMARKS
NASHVILLE      MOCLDY    66  64  93 S3        29.88S
CLARKSVILLE    CLOUDY    70  60  70 SE7       29.87S
COLUMBIA       CLEAR     68  32  26 SE5       29.88R


...WESTERN KENTUCKY...

CITY           SKY/WX    TMP DP  RH WIND       PRES   REMARKS
PADUCAH        MOCLDY    66  61  84 CALM      29.85R
FORT CAMPBELL  CLOUDY    72  59  63 E3        29.87S


...CENTRAL ARKANSAS...

CITY           SKY/WX    TMP DP  RH WIND       PRES   REMARKS
LITTLE ROCK    CLOUDY    66  63  88 E6        29.82S


SKY/WX REPORTED AS FAIR MEANS FEW OR NO CLOUDS BELOW
12 THOUSAND FEET.




USA.gov is the U.S. government's official web portal to all federal, state and local government web resources and services.